Wind_Speed
6 7 8 9 10 9 9 8 10 13 16 19 21 20 17 15 14 14 13 13 14 15 17 19 19 20 20 20 20 20 19 19 18 17 17 16 16 15 14 14 14 14 14 14 15 15 15 14 14 14 14 14 15 17 18 18 19 19 20 21 22 23 24 27 26 25 22 20 22 19 17 17 15 16 16 14 15 16 17 18 18 17 17 16 14 12 11 9
9 9 10 11 12 12 11 11 12 14 16 18 20 20 18 16 15 15 16 17 18 20 21 22 22 22 22 22 22 21 21 20 19 18 17 17 16 15 15 14 14 14 14 14 14 14 15 15 15 16 16 16 16 18 18 19 20 20 23 23 23 26 26 26 26 25 21 20 21 18 16 16 14 15 16 17 18 16 16 17 18 17 17 15 13 11 10 7
10 11 12 14 15 15 15 15 15 15 17 18 19 20 20 19 18 18 19 20 21 22 22 22 23 22 22 21 21 20 20 20 20 19 18 17 16 15 15 14 14 14 14 14 14 14 15 15 16 17 17 18 18 19 20 21 22 23 25 24 24 27 25 24 25 24 22 19 18 17 16 16 16 17 18 19 17 13 11 12 13 15 15 14 12 11 9 7
12 13 14 16 17 18 20 20 19 17 17 18 19 21 22 22 22 22 22 22 22 22 22 22 23 22 22 21 20 19 19 20 20 19 18 17 16 15 14 13 13 13 14 14 14 14 15 17 17 18 20 20 20 21 23 24 25 26 26 26 26 27 25 24 23 22 21 18 16 16 16 17 17 15 13 12 10 10 9 8 8 11 13 13 12 10 8 6
13 14 16 17 19 22 23 23 22 20 19 20 21 22 23 23 24 24 23 23 23 22 22 22 22 23 23 22 20 19 18 19 19 18 17 16 15 14 14 13 13 13 13 14 15 16 17 19 20 20 24 25 24 24 26 25 25 26 25 26 27 25 24 22 21 20 19 17 17 17 17 17 15 10 7 6 9 10 8 7 7 9 11 10 8 7 6 6
14 15 17 18 21 23 24 25 24 23 22 22 22 23 23 24 24 24 23 23 23 23 22 22 22 23 23 22 20 19 18 18 19 18 17 15 15 14 14 14 14 14 15 16 17 19 20 21 23 24 28 28 27 27 27 25 25 25 24 25 24 23 21 21 21 20 19 19 19 17 15 13 12 10 8 7 8 10 7 6 7 8 7 4 5 5 4 3
16 17 18 20 22 23 24 25 26 26 25 24 24 24 24 24 24 24 23 23 23 22 22 22 22 22 22 22 20 18 17 18 18 18 17 16 15 15 15 15 15 16 16 17 19 21 23 24 26 28 31 29 27 28 27 25 25 25 25 24 22 21 20 21 21 20 19 19 19 16 13 12 11 10 9 8 8 10 8 6 5 5 4 2 3 4 3 2
18 19 19 21 22 22 24 25 26 27 27 26 25 25 25 25 24 24 23 23 22 22 21 21 21 20 21 22 21 18 17 17 18 18 17 16 16 16 17 17 17 16 16 16 18 21 23 25 26 28 31 29 26 27 27 25 23 23 24 23 21 21 20 21 20 18 19 18 17 15 13 11 10 9 10 8 8 9 8 6 4 2 2 1 0 1 2 1
19 20 21 22 22 23 24 25 26 26 27 27 26 26 25 25 24 23 22 22 22 21 21 20 20 20 21 23 20 17 18 18 18 17 16 15 15 16 17 18 18 17 16 16 17 19 21 23 24 24 27 27 24 24 24 23 22 21 21 21 20 19 18 19 19 18 18 16 14 14 13 12 11 10 10 8 7 7 7 5 3 1 1 2 3 2 1 1
20 20 21 21 22 23 24 25 25 26 26 26 26 26 25 25 24 23 22 22 21 21 21 20 21 20 22 22 19 17 18 18 18 17 16 15 14 14 15 16 18 19 17 16 15 17 18 19 21 21 22 23 22 22 22 21 20 19 19 18 17 17 17 18 18 17 16 14 13 13 13 13 12 11 9 8 7 6 5 5 3 2 1 2 3 3 3 3
19 19 19 21 22 23 24 24 25 25 26 26 26 25 25 24 23 22 21 21 21 21 21 21 21 22 22 21 18 17 18 17 17 17 16 15 14 14 14 15 16 18 18 16 14 14 15 16 18 19 20 21 20 20 20 19 19 18 17 16 15 15 16 17 17 16 13 11 11 12 14 14 13 12 9 9 8 7 6 6 4 2 0 3 3 3 3 3
18 17 18 20 21 22 23 23 24 24 25 25 25 25 24 23 22 22 21 21 21 21 21 21 22 22 21 21 19 18 18 17 17 16 16 16 15 16 16 16 16 16 16 15 14 13 12 14 15 17 18 18 18 18 17 17 17 17 15 14 14 14 14 15 15 15 12 10 9 9 13 14 14 13 11 10 10 8 7 7 5 3 2 4 3 3 4 4
17 16 17 19 20 20 21 22 23 24 25 25 25 24 24 23 22 21 21 21 21 21 21 21 21 21 20 20 19 18 18 17 17 17 17 17 16 16 16 16 16 16 15 14 12 11 10 11 12 14 15 16 17 16 15 16 16 15 14 13 13 14 15 14 13 14 13 11 10 9 10 12 13 14 12 11 10 9 8 7 5 4 4 5 5 4 5 5
16 16 17 18 19 19 20 21 22 23 24 24 24 24 23 22 22 21 21 20 20 21 21 21 21 20 20 20 19 18 18 18 18 18 18 17 17 17 16 16 16 16 16 14 12 10 9 8 9 10 11 13 14 13 13 15 14 14 14 14 15 15 15 14 13 14 13 11 11 9 8 9 12 14 13 11 10 10 8 7 6 6 5 5 5 6 6 5
16 16 16 17 18 18 19 19 21 22 23 23 23 23 23 22 22 21 20 20 20 20 20 20 20 20 20 19 18 17 17 17 18 18 17 17 17 16 16 16 15 15 14 13 12 10 9 7 6 5 7 10 11 11 10 12 14 13 14 15 16 16 15 15 15 15 13 12 12 9 7 9 11 14 14 12 12 11 10 9 7 7 7 7 7 7 6 6
17 16 16 16 17 17 18 18 20 21 22 22 22 22 22 21 21 21 21 20 20 19 19 20 19 18 19 18 17 17 17 18 18 17 17 18 18 17 17 17 17 16 15 14 12 10 8 7 5 4 4 6 8 9 8 10 13 14 16 16 16 18 17 18 18 17 15 14 13 11 9 9 11 14 15 14 13 13 12 10 9 9 8 8 8 7 6 6
17 16 15 16 16 16 16 17 19 20 20 21 21 21 21 21 20 20 21 20 20 19 19 19 18 18 18 17 17 18 18 18 18 18 18 18 18 18 18 17 17 16 16 15 13 12 10 7 5 3 2 2 4 6 8 10 12 13 17 19 18 20 20 18 19 19 18 17 16 14 12 11 11 13 14 14 15 14 13 12 11 10 10 9 9 8 7 7
17 15 15 15 15 15 15 16 18 19 19 20 20 20 20 21 20 20 20 19 19 18 18 18 17 18 18 17 17 18 18 18 18 18 18 18 18 17 17 16 15 14 14 14 13 12 10 8 7 6 4 2 3 5 7 10 12 13 14 17 21 23 20 18 19 20 19 18 17 16 14 12 11 12 13 14 15 15 14 13 12 11 10 11 10 10 10 10
16 15 14 14 14 14 14 16 17 18 19 20 20 19 20 20 20 19 19 18 18 17 17 17 16 17 17 17 17 17 17 17 17 17 17 17 17 17 16 16 15 14 13 12 11 10 9 8 7 6 6 5 5 6 8 10 13 14 12 15 21 24 22 19 20 20 19 17 16 16 15 12 12 12 11 14 16 16 15 13 12 11 11 12 12 12 12 13
15 14 14 14 14 13 14 15 16 17 18 19 19 19 19 20 20 18 18 18 17 16 16 16 15 16 16 16 17 17 16 16 16 16 16 16 16 16 16 16 15 14 14 12 11 10 9 9 8 7 7 7 7 7 10 12 14 15 16 19 21 23 23 22 21 20 18 16 15 15 14 12 12 12 11 13 16 16 15 14 13 12 12 13 13 13 14 16
15 14 13 13 13 12 13 14 15 16 17 17 18 18 19 20 19 18 18 18 16 14 14 15 15 15 16 16 17 17 16 16 15 15 14 15 15 15 16 16 15 14 13 12 11 10 9 9 9 8 9 8 8 8 9 11 14 17 19 22 22 22 23 22 21 19 17 15 15 15 15 13 12 12 12 13 15 15 15 14 13 13 13 13 14 16 17 19
15 13 12 12 12 12 12 13 13 15 15 16 16 16 17 18 18 18 18 17 15 14 14 15 15 15 15 16 17 16 15 14 14 13 13 13 13 14 15 15 14 13 12 11 10 10 9 9 8 9 10 9 8 8 6 7 9 14 19 20 21 23 23 23 22 20 18 16 17 17 15 14 13 13 12 12 14 15 14 13 13 13 13 14 16 17 19 21
15 13 11 10 10 11 11 11 12 13 14 14 14 15 16 16 16 17 17 16 15 15 15 16 16 15 15 16 16 15 14 14 13 12 12 11 12 13 12 12 12 11 10 9 9 8 8 8 9 10 11 10 11 10 8 5 2 7 12 14 16 20 21 23 24 22 20 18 18 17 15 15 14 13 13 12 14 14 14 13 13 13 14 15 17 20 23 23
14 12 11 9 9 9 9 9 10 11 12 13 13 14 15 15 15 16 16 16 15 15 16 17 16 15 15 15 14 14 14 13 13 12 11 11 11 11 11 11 10 9 9 8 8 8 9 10 11 11 12 14 15 14 10 7 4 1 6 7 10 15 18 21 25 25 23 21 19 17 17 16 15 14 13 12 13 13 13 13 13 14 15 17 19 20 20 17
13 11 10 9 8 8 8 8 8 9 11 11 11 12 13 14 14 15 16 15 15 14 14 15 15 15 15 15 13 13 13 13 12 11 10 10 10 10 10 10 8 8 8 9 9 10 11 12 12 13 16 19 19 16 11 8 7 4 1 2 7 11 14 18 23 27 27 23 20 18 18 17 16 15 14 13 13 12 12 13 14 16 17 18 19 18 15 12
12 11 10 8 7 7 6 6 7 8 10 10 10 11 12 13 13 14 14 14 13 12 11 12 13 14 14 14 13 12 12 12 12 11 10 9 9 9 9 9 8 8 9 10 11 12 13 14 15 18 21 21 20 17 14 10 8 8 6 6 7 9 12 14 18 25 27 24 22 20 18 19 18 17 16 15 14 13 13 15 15 16 17 17 17 17 16 14
11 10 9 8 7 6 5 5 6 7 8 9 9 10 11 11 12 12 12 11 11 11 10 11 11 13 13 13 13 12 12 12 11 10 9 9 10 9 9 9 8 8 10 10 12 14 14 15 17 20 21 21 20 19 17 14 11 9 10 10 9 9 12 14 15 21 25 23 22 20 19 20 20 19 18 17 16 15 15 16 16 16 16 16 15 15 16 16
10 9 9 8 7 5 4 4 4 5 7 7 9 10 10 10 10 10 10 11 11 11 11 11 12 13 13 13 13 13 13 12 10 9 9 10 11 10 8 8 8 9 10 11 13 14 16 17 18 19 20 20 21 21 20 18 15 12 13 13 11 12 14 16 16 19 23 24 23 21 20 21 22 21 20 18 17 17 17 17 17 16 16 15 14 14 16 17
10 9 9 8 7 5 4 3 3 4 6 6 8 9 9 9 10 9 9 11 10 10 11 12 12 12 13 13 13 12 13 12 11 10 10 10 10 9 8 8 8 9 10 12 14 15 16 16 17 18 19 20 21 23 21 21 19 17 17 16 14 14 14 15 16 18 20 21 22 22 22 22 23 23 22 20 19 19 18 18 17 16 15 14 14 15 17 17
10 9 9 8 7 5 4 3 3 4 5 6 8 9 9 9 9 10 10 10 10 9 11 11 11 11 12 12 11 12 13 12 11 9 8 8 8 9 9 9 9 10 11 13 15 16 16 15 16 18 18 19 21 22 22 21 20 19 19 19 18 17 15 14 14 15 17 16 18 21 22 21 23 23 22 21 21 20 19 19 18 16 15 15 15 16 17 17
11 10 9 8 7 6 4 4 4 4 5 7 8 8 9 9 9 10 10 9 9 10 10 11 11 11 10 10 11 12 13 12 10 8 7 8 9 9 9 9 10 10 12 14 15 16 15 15 16 17 18 19 20 22 22 21 21 20 19 19 19 17 16 14 13 13 13 12 14 18 20 20 22 22 22 22 21 21 20 19 18 17 15 15 16 16 17 17
11 10 9 8 7 6 5 4 4 5 6 7 8 8 8 8 9 10 9 9 9 10 10 11 11 10 10 11 12 13 14 13 11 10 9 9 9 8 8 9 10 11 13 14 15 15 15 15 15 15 17 18 18 20 21 20 21 20 18 17 17 16 15 14 12 10 10 10 11 13 15 17 18 17 19 21 20 21 20 18 17 16 16 16 16 16 16 15
11 9 9 8 7 6 5 5 5 5 6 7 7 8 8 8 8 9 9 9 10 10 10 11 11 12 12 12 13 14 14 14 12 11 10 9 8 8 9 11 12 13 14 14 14 15 15 15 15 15 16 16 17 19 19 18 19 19 17 17 16 15 15 14 11 9 8 8 9 10 11 13 14 13 14 16 17 18 17 17 17 16 16 15 15 14 13 13
10 9 8 8 7 7 6 6 6 6 6 7 7 7 7 7 8 9 9 10 10 11 11 12 13 13 13 13 14 14 14 13 13 11 10 9 9 10 11 12 13 14 14 14 14 14 15 15 15 15 15 14 16 17 16 16 18 18 16 16 16 14 13 12 10 8 7 7 8 9 9 10 11 11 12 13 14 15 15 16 16 15 14 13 13 13 13 13
9 9 8 8 7 7 7 7 7 7 7 7 7 7 7 7 7 8 10 10 11 11 12 13 13 13 13 13 14 13 13 13 12 11 11 11 12 12 13 12 13 13 14 14 15 14 15 15 14 15 14 12 14 14 13 14 16 16 15 15 15 13 11 10 9 7 7 7 7 8 8 8 9 10 10 10 11 12 12 12 12 11 11 11 11 12 12 13
8 8 8 8 8 7 7 7 7 7 7 7 7 6 6 7 7 8 9 10 11 11 12 13 13 13 13 13 12 12 12 12 12 12 12 13 13 13 13 12 13 13 13 14 14 14 14 14 14 13 12 11 12 12 11 12 14 14 14 14 14 12 11 11 9 7 7 6 5 5 6 7 7 7 8 9 8 9 9 9 9 9 9 10 10 11 11 12
8 8 9 9 8 8 8 8 8 8 8 7 7 6 6 6 7 8 9 10 11 11 11 12 13 13 12 13 13 13 12 12 12 11 12 12 12 12 12 12 12 12 13 13 14 14 14 14 13 12 11 11 11 10 10 10 11 12 13 12 11 11 11 10 9 8 7 7 4 3 3 5 5 4 5 6 7 7 7 7 7 8 8 8 9 10 11 12
9 9 9 9 8 8 9 9 9 9 8 8 7 6 5 5 6 7 8 9 10 10 10 11 11 11 12 13 13 13 13 12 12 11 11 11 10 10 11 11 11 12 12 12 13 14 14 13 13 11 10 10 9 9 9 9 9 10 11 9 9 9 8 8 8 7 7 6 4 3 3 3 3 2 3 4 5 5 5 6 7 7 7 8 9 10 11 12
9 9 10 9 9 9 9 10 10 9 9 8 7 6 4 4 4 5 6 7 8 8 8 9 10 11 12 13 13 13 13 13 12 12 12 11 10 9 9 9 10 11 11 11 12 13 14 13 13 11 10 9 8 7 7 7 8 8 8 7 7 7 6 6 6 6 6 5 3 2 2 1 2 2 3 4 4 4 5 5 6 6 7 8 9 10 12 13
10 10 11 10 9 9 10 10 10 10 9 9 8 6 4 3 3 4 5 6 6 6 7 8 9 10 12 12 12 12 13 13 13 13 12 11 10 9 9 8 8 9 10 11 11 12 13 13 13 12 11 9 8 7 6 7 7 7 7 7 6 6 5 5 5 5 4 4 3 2 1 2 2 3 4 5 4 5 5 6 6 7 8 9 10 11 12 13
12 12 12 11 9 9 10 10 10 10 10 10 9 7 5 4 4 4 4 4 4 5 6 7 8 10 11 11 12 12 13 14 14 13 12 11 10 9 8 8 7 8 9 9 10 10 11 12 13 13 12 11 9 8 7 7 7 7 7 6 6 5 5 4 4 4 4 3 3 3 4 4 4 5 6 6 6 6 7 7 8 9 9 10 11 12 13 14
13 13 12 10 9 9 10 10 10 11 10 10 9 8 6 5 4 4 3 3 3 3 5 6 8 9 9 10 11 12 13 14 14 13 12 11 10 9 8 7 7 7 7 8 8 9 10 11 12 13 13 12 10 9 9 8 8 8 7 6 6 5 5 4 4 4 3 3 4 4 5 5 6 6 7 8 8 8 8 9 10 10 11 12 12 13 14 14
14 14 12 10 10 10 11 11 11 11 11 10 10 8 7 6 5 4 3 2 2 2 4 5 7 7 8 10 11 12 14 15 15 14 13 12 11 9 8 7 6 7 7 6 7 8 9 10 12 12 13 13 12 11 11 10 9 8 7 6 5 4 4 4 4 4 4 4 5 5 6 7 7 8 8 9 9 10 10 11 12 12 12 13 13 14 14 15
16 14 13 11 11 11 11 11 12 12 11 11 10 9 7 6 5 4 2 2 2 2 3 4 5 6 8 10 11 12 14 15 16 15 14 13 12 11 9 7 6 6 6 6 7 7 8 10 11 12 13 13 13 11 10 9 9 7 6 4 4 4 4 4 4 4 4 5 6 6 7 8 8 9 9 10 11 11 12 12 13 13 13 14 15 15 15 16
17 15 13 12 12 11 11 11 12 12 12 12 11 9 7 6 5 3 2 2 1 1 2 3 5 6 8 10 11 13 15 16 16 15 14 14 14 12 11 9 7 6 6 6 7 8 8 9 10 11 12 12 12 10 9 8 7 6 5 4 3 3 3 3 3 4 4 5 6 7 8 8 8 9 9 10 11 11 12 13 13 14 15 15 16 16 17 18
18 16 15 14 13 12 11 12 12 12 13 12 11 9 7 6 5 4 3 2 1 0 1 3 4 6 8 10 12 14 15 16 16 15 15 15 15 14 13 12 10 8 7 7 7 8 8 8 9 10 11 11 12 11 9 8 7 6 5 4 4 3 3 3 3 3 4 4 5 6 7 7 8 8 9 10 10 11 12 13 13 14 15 16 17 17 18 19
18 17 15 14 13 12 12 12 12 13 13 12 11 9 8 7 6 5 4 3 2 1 1 3 5 6 8 11 12 14 15 16 16 15 14 15 15 16 16 15 13 11 9 8 8 8 8 8 8 8 9 10 12 12 11 9 8 7 6 5 4 4 3 3 3 3 3 4 4 5 6 7 7 8 8 9 10 11 12 13 14 15 16 17 18 18 19 19
19 17 16 15 14 13 12 12 13 13 13 13 11 9 8 8 7 6 5 4 3 2 2 3 5 7 9 11 13 14 15 15 15 15 14 14 15 16 16 16 15 14 12 10 9 8 8 8 7 8 8 10 11 12 12 11 9 8 7 6 5 5 5 5 5 5 5 5 6 6 6 7 8 9 9 10 11 12 13 14 14 15 16 17 18 19 20 20
19 18 17 16 15 14 13 13 13 13 14 13 12 11 10 9 8 7 6 5 4 3 4 4 5 7 9 11 13 14 15 15 15 14 13 13 14 15 15 16 16 15 14 12 11 10 8 8 7 8 9 10 11 12 13 12 11 10 9 7 7 6 7 6 6 6 6 7 7 7 7 7 8 9 9 10 11 12 13 14 15 16 16 17 18 19 20 21
20 19 18 17 16 15 15 14 13 13 14 14 13 11 11 10 9 8 6 5 4 5 5 5 6 8 10 12 13 14 14 14 14 13 13 12 13 14 14 15 16 16 15 15 14 12 11 10 9 9 9 10 11 12 13 13 13 12 10 9 8 7 7 7 7 7 7 7 7 8 8 7 7 8 9 10 11 12 13 14 15 16 16 17 18 19 20 21
21 20 19 17 17 16 15 14 14 14 14 14 13 12 11 10 9 8 6 5 5 6 6 6 7 8 10 12 13 14 14 13 12 12 12 12 12 13 13 14 15 15 15 16 16 15 14 13 12 12 11 11 12 12 12 13 13 12 11 10 9 8 7 8 8 8 7 7 8 8 8 8 8 8 9 9 11 12 13 14 15 16 17 17 18 19 20 21
22 20 19 18 18 16 15 14 14 14 14 13 13 12 11 10 9 8 7 6 6 7 7 8 8 9 10 11 12 13 13 12 11 10 10 11 11 12 13 13 14 14 15 15 16 16 16 16 15 15 14 14 13 13 13 13 12 12 12 11 10 9 8 8 8 8 8 8 8 8 9 9 10 10 10 10 11 12 13 14 15 16 17 18 19 20 21 22
Wind_Direction
74 55 44 35 29 25 20 16 15 19 22 21 21 23 27 31 36 40 42 43 44 48 50 50 52 54 56 58 58 59 61 63 68 74 79 85 90 96 102 108 114 119 125 129 133 137 141 146 151 156 158 159 163 165 168 172 177 179 179 179 175 178 182 177 180 182 178 169 174 190 192 192 195 198 207 215 220 224 225 229 238 247 250 251 248 239 234 231
73 60 53 48 45 43 38 33 32 32 32 30 30 33 37 42 47 51 54 54 55 55 56 56 57 58 60 62 63 63 65 67 68 71 76 80 85 92 98 104 110 114 119 123 128 133 137 142 146 150 154 156 160 163 168 172 176 179 177 174 175 180 181 179 181 181 178 170 174 192 195 193 197 198 209 220 222 227 229 227 234 239 241 240 232 223 220 222
75 67 61 57 55 52 49 46 44 41 40 39 40 42 46 49 52 55 58 59 59 58 58 59 58 58 59 61 64 65 68 70 71 71 73 76 80 86 93 100 106 111 117 122 126 131 135 139 144 147 150 152 157 162 167 171 174 179 175 166 173 182 178 178 181 180 184 180 177 189 192 192 205 207 211 220 216 211 216 218 226 231 230 227 220 215 211 218
78 71 66 63 60 57 56 54 50 49 48 49 49 51 53 54 55 57 58 58 59 59 59 59 59 58 57 58 61 66 70 73 73 74 75 77 80 85 90 97 106 114 119 123 126 131 135 137 140 145 145 149 158 163 166 172 174 175 173 166 173 181 174 174 180 179 183 183 181 192 199 198 204 210 211 210 186 171 185 187 193 207 212 215 212 210 207 202
81 75 71 66 63 62 60 57 56 56 56 56 56 56 57 57 58 58 58 58 58 59 59 59 59 58 57 56 58 63 67 71 73 73 74 76 78 83 90 98 108 114 118 122 127 132 135 136 140 144 143 149 158 161 166 173 177 177 178 174 175 177 170 170 175 176 177 179 190 199 204 201 189 184 180 171 166 171 178 167 170 185 197 202 182 179 193 193
84 78 73 68 66 65 62 62 62 62 61 60 60 60 60 60 59 59 58 58 58 57 57 57 58 59 59 57 56 60 65 69 71 69 68 69 71 77 86 97 106 111 117 122 129 133 136 137 141 143 143 151 158 160 168 176 178 176 176 174 170 169 165 164 171 176 179 186 200 197 186 183 171 166 170 171 178 180 176 171 180 181 184 178 137 146 169 183
86 79 74 70 68 67 66 66 66 65 64 63 63 63 62 61 59 59 58 57 57 56 56 56 57 59 61 61 58 60 64 67 70 71 69 69 72 76 82 89 97 105 114 123 131 134 137 140 143 144 144 153 162 163 170 176 178 172 169 171 169 166 162 162 171 179 186 196 206 196 177 177 178 185 188 176 172 175 173 174 186 192 186 131 98 124 143 162
86 80 75 73 71 70 70 70 69 67 66 65 66 65 64 63 61 59 58 58 57 57 57 57 58 59 62 62 58 58 59 61 67 72 72 74 78 80 83 86 90 98 108 120 130 134 139 142 145 146 147 156 164 166 169 170 174 174 170 171 171 169 164 164 171 179 190 200 205 199 192 194 198 197 185 166 159 167 165 153 159 209 235 231 8 87 149 173
87 81 77 75 74 74 74 73 71 68 67 67 66 66 65 64 62 61 59 59 58 58 58 58 59 59 61 61 56 54 56 58 64 70 72 75 78 81 85 87 91 96 104 116 128 135 141 144 147 150 152 160 167 169 172 170 172 177 176 175 175 174 172 169 174 183 195 203 205 204 206 213 213 198 180 167 157 156 149 134 123 73 335 273 277 285 254 251
89 84 80 78 77 77 77 76 74 70 68 67 66 66 65 65 64 63 61 60 60 59 59 58 59 59 59 59 56 54 55 57 61 63 65 68 72 78 81 85 90 94 100 112 126 137 142 146 150 154 156 164 171 172 177 177 177 182 183 183 181 178 176 174 178 188 199 207 208 210 215 217 210 193 177 172 167 157 142 130 119 84 28 268 259 267 271 287
92 87 84 82 81 80 80 79 76 72 69 67 66 66 65 65 64 63 62 62 61 60 59 58 57 56 57 57 56 55 55 57 59 59 59 60 63 67 72 76 81 88 96 106 123 137 143 147 152 157 160 168 175 177 182 185 185 188 190 191 191 187 183 179 182 191 201 211 210 212 219 218 207 197 187 181 180 173 158 147 151 143 251 251 244 252 261 283
96 93 89 86 84 83 82 81 78 74 71 68 67 65 65 64 63 63 62 61 61 60 59 57 56 55 55 56 55 54 55 56 58 59 59 60 61 62 68 73 76 81 89 101 115 131 143 151 156 160 165 171 179 184 187 192 194 197 200 198 199 204 197 189 188 193 203 215 215 211 214 213 205 201 193 189 191 187 176 164 167 184 240 252 254 258 247 256
102 98 93 89 87 86 84 83 80 75 72 70 67 66 64 63 62 61 61 60 61 60 59 58 57 57 56 56 56 56 57 58 60 61 61 63 64 66 70 75 78 78 82 92 104 120 137 151 161 167 173 177 183 190 193 199 203 207 212 207 206 211 203 200 199 200 208 216 224 221 209 205 204 205 198 194 199 201 193 180 185 206 234 253 260 261 250 250
108 102 96 92 91 89 87 85 81 76 73 70 68 66 64 62 61 60 60 60 60 60 60 60 59 59 58 57 57 57 58 60 62 62 63 64 66 69 73 75 79 81 82 85 91 104 120 140 163 176 186 190 192 200 204 208 212 212 218 217 216 210 195 200 209 207 212 221 229 231 217 208 207 210 206 199 203 208 211 204 205 220 231 247 252 255 254 256
112 106 100 96 95 92 90 87 82 78 74 72 69 67 65 63 61 60 60 59 59 59 59 59 58 58 59 58 57 58 60 61 63 64 65 67 68 69 71 73 76 77 78 80 83 89 99 120 148 175 201 210 209 214 216 218 223 219 219 220 226 224 200 201 214 212 218 231 239 240 234 223 215 217 216 209 204 207 217 214 211 227 238 246 250 250 252 260
115 110 105 100 98 95 92 88 83 79 76 73 71 69 67 64 62 60 59 59 58 57 58 59 57 58 60 60 60 63 64 65 65 67 68 69 70 70 70 69 69 68 66 67 69 68 73 92 111 135 187 216 221 229 232 232 235 231 224 219 225 236 221 207 213 216 220 236 250 260 262 246 226 222 224 215 205 207 216 218 221 235 245 253 256 257 261 269
118 113 109 104 101 97 94 89 84 81 78 76 73 70 68 65 62 59 58 58 57 57 58 60 60 61 62 61 62 63 64 65 64 65 66 67 68 68 68 66 63 62 59 58 56 51 48 53 59 74 123 209 230 244 242 234 238 239 236 230 228 238 236 222 219 220 224 235 249 262 266 255 233 224 225 216 205 208 216 222 229 238 248 257 265 274 279 278
120 117 112 107 103 98 94 89 85 82 80 77 74 71 68 65 61 59 58 57 56 55 56 59 59 62 63 61 60 61 61 62 62 63 64 65 64 63 63 63 60 58 57 54 49 45 40 37 37 28 13 339 291 267 252 240 242 242 240 239 238 241 241 231 228 229 231 237 246 252 251 245 234 226 223 216 206 208 216 223 232 243 255 266 276 285 289 289
122 119 115 110 105 101 96 91 87 84 81 78 75 71 69 66 62 59 58 57 55 52 51 53 54 59 61 59 58 57 57 58 59 60 60 60 60 59 58 57 55 53 54 53 46 42 36 33 31 11 353 335 310 285 269 261 258 255 243 238 241 244 245 241 240 241 240 241 242 239 235 233 234 231 224 219 212 210 215 222 234 248 260 271 281 288 291 295
123 120 118 113 109 105 100 94 90 86 82 79 76 72 69 67 63 59 56 55 52 48 48 49 49 54 57 57 56 54 52 51 51 53 53 53 53 52 51 49 47 46 47 47 41 37 33 28 21 3 351 337 314 294 278 267 262 260 252 246 243 240 241 242 241 243 242 238 232 225 224 226 232 234 226 220 217 214 217 223 234 245 257 270 281 288 292 297
124 122 122 118 114 110 103 98 92 87 83 80 76 73 70 66 63 59 54 52 50 47 47 47 46 49 51 51 53 51 48 46 44 46 47 48 48 47 46 43 42 42 40 40 36 32 29 23 13 0 354 345 328 309 285 267 259 255 251 250 247 237 232 233 234 236 236 229 220 217 217 220 226 228 221 218 220 219 219 225 235 245 257 270 281 289 293 296
124 124 125 123 120 114 106 100 94 88 84 80 76 73 70 66 62 57 53 50 48 46 45 45 45 46 46 46 48 47 45 44 41 41 43 45 46 45 45 42 39 39 38 36 32 26 24 21 11 3 359 353 345 334 313 275 248 244 246 245 244 239 229 224 224 223 225 219 213 213 212 215 221 222 218 216 218 219 222 230 238 248 260 271 282 287 289 290
126 127 128 127 123 116 108 100 94 89 85 80 77 73 69 66 61 56 52 47 43 41 40 41 42 42 43 43 44 44 43 44 40 38 40 42 44 44 44 43 37 35 38 35 28 21 21 23 17 12 7 6 10 6 356 336 249 225 245 242 230 231 225 219 216 212 214 216 211 211 210 214 220 219 219 217 216 219 224 233 242 253 265 273 281 284 286 286
131 131 132 132 127 118 109 101 94 89 84 79 75 72 68 65 60 54 51 45 37 33 32 35 36 37 40 41 42 45 44 44 40 35 34 34 40 44 45 45 37 33 37 34 26 22 25 27 23 21 18 21 25 19 13 359 348 283 249 237 202 209 213 211 209 205 207 211 209 208 207 213 220 219 220 221 222 225 228 237 246 255 266 272 278 287 296 293
137 138 138 138 132 122 111 102 96 89 83 78 73 71 67 63 57 52 50 44 35 27 25 28 30 33 38 38 40 44 43 44 42 35 32 32 38 46 48 45 39 34 35 31 27 26 28 29 26 28 27 29 31 24 27 30 9 17 274 210 172 186 196 197 200 199 201 203 205 207 206 210 219 219 220 224 228 230 232 239 247 253 262 270 276 286 300 303
145 145 145 145 139 128 116 105 96 88 82 76 71 67 63 59 54 50 49 44 34 22 20 24 25 30 34 32 35 39 38 42 42 35 33 36 41 50 49 43 39 35 34 30 30 30 31 32 30 31 31 33 35 31 38 53 38 39 67 94 130 164 181 187 193 195 194 196 201 205 206 210 217 219 220 224 225 227 232 238 245 252 261 272 278 281 288 300
154 153 153 153 148 137 123 108 95 85 80 73 68 63 59 56 53 50 48 45 33 19 19 24 26 28 28 28 31 32 34 38 37 31 32 40 44 48 46 40 39 37 34 32 33 35 36 37 35 34 35 35 38 39 48 62 61 60 80 93 106 134 159 170 181 188 190 195 200 204 206 212 218 220 223 227 228 229 234 240 246 254 264 275 281 284 290 301
162 162 162 161 158 149 132 112 93 82 77 71 66 62 59 57 53 51 49 44 34 20 20 26 26 24 24 27 27 27 33 37 35 30 32 40 43 44 44 40 39 35 33 34 36 39 41 41 40 38 39 39 42 46 51 61 70 76 83 92 99 111 136 156 168 179 187 193 200 204 207 211 217 220 225 230 232 234 238 243 251 259 269 278 284 289 296 300
172 172 170 167 162 156 141 117 94 82 76 73 69 64 61 58 54 55 53 45 36 26 25 27 24 18 19 23 21 25 35 38 37 32 29 35 40 44 46 41 38 33 30 34 38 43 45 46 44 42 42 42 45 51 55 61 70 76 78 84 93 100 119 144 157 170 182 191 198 204 207 211 217 222 226 230 234 238 244 250 257 264 273 282 288 292 294 296
180 181 177 170 164 158 145 124 100 87 80 75 73 67 62 60 57 58 58 48 39 34 31 28 22 17 18 19 21 31 41 45 48 44 37 40 43 45 46 41 37 33 30 35 41 44 46 49 49 46 45 45 48 54 58 64 72 77 78 81 87 93 105 125 141 159 177 188 198 205 207 211 218 223 228 233 238 243 250 256 263 270 277 285 291 292 293 297
185 188 182 173 167 158 144 128 105 92 85 78 75 70 64 61 58 59 58 51 43 38 33 28 25 23 24 28 35 45 53 61 68 68 60 54 49 47 45 44 41 36 35 37 41 44 45 49 52 51 50 49 51 56 59 65 75 79 78 82 88 93 101 114 129 150 171 188 199 204 207 213 219 224 229 234 240 246 251 257 262 268 275 283 289 291 295 301
189 190 184 176 171 161 145 128 110 99 92 83 77 72 68 64 61 62 61 55 49 44 38 34 35 37 39 42 46 53 59 64 68 68 61 55 52 48 46 46 44 41 39 38 39 42 43 46 50 53 54 52 54 59 61 65 74 81 82 87 96 105 112 121 130 145 167 183 188 195 204 213 222 227 231 235 239 244 248 253 257 263 271 280 288 293 299 306
190 188 184 181 175 164 148 128 115 106 99 91 84 77 73 71 69 70 67 61 55 50 45 45 46 48 47 46 49 54 56 58 58 58 57 56 55 51 47 45 43 42 40 38 39 40 41 44 46 50 53 52 54 61 65 67 73 83 90 96 105 116 123 130 138 148 165 173 178 190 201 213 225 231 232 234 236 240 243 247 253 262 272 283 292 298 307 313
187 184 183 182 176 168 154 132 121 117 109 104 97 87 83 81 80 80 76 68 60 54 50 50 50 50 49 48 48 50 54 57 58 56 57 59 56 50 46 43 41 42 41 38 38 38 40 42 42 45 49 50 54 60 65 70 74 80 88 96 103 111 119 128 138 150 165 171 180 195 200 205 217 223 223 226 230 235 241 247 256 267 279 289 298 306 312 315
185 181 179 179 177 172 159 141 131 127 123 119 110 98 93 93 92 89 82 73 65 59 54 52 51 50 48 47 46 45 49 54 57 55 54 52 49 46 44 43 42 43 42 40 38 37 39 40 40 42 43 45 55 60 64 72 77 79 82 87 93 100 107 115 127 142 155 161 174 192 196 196 207 214 217 223 232 239 247 256 266 278 288 296 303 308 312 314
184 176 173 178 181 175 163 151 143 138 134 129 121 109 103 101 98 95 87 78 70 64 58 56 55 53 51 49 47 44 44 47 49 49 47 44 43 43 41 42 42 43 43 42 40 38 39 39 40 41 39 39 48 53 56 65 74 80 82 82 86 92 95 99 107 117 128 137 155 179 188 192 203 216 224 234 246 255 263 273 283 292 297 301 304 308 313 317
182 175 175 180 183 177 167 161 154 147 142 137 129 116 109 108 103 97 89 81 74 68 63 61 60 58 56 53 50 46 43 41 42 43 42 41 40 39 40 41 42 43 43 42 40 40 41 40 39 39 37 37 40 41 44 55 65 75 79 80 86 89 89 91 95 100 106 112 120 133 157 183 199 215 233 246 258 270 283 292 296 298 301 305 310 315 318 320
182 178 180 183 183 178 172 169 162 154 150 145 135 121 113 113 111 102 91 82 76 70 66 64 63 61 58 54 48 44 40 38 39 39 39 38 36 35 37 40 42 44 43 41 39 39 41 41 41 41 38 37 36 34 37 46 56 65 72 77 81 84 86 91 93 95 97 97 97 104 120 158 191 217 247 258 266 280 293 298 298 301 310 317 319 321 322 324
184 183 185 186 184 178 177 175 167 160 157 153 144 131 123 123 120 109 94 83 77 72 67 64 62 59 55 51 45 40 37 34 33 33 33 32 30 30 32 34 39 43 43 41 39 39 39 40 41 42 42 42 41 36 35 42 48 56 63 66 70 75 81 84 85 87 88 87 84 93 103 136 207 244 270 276 282 295 303 303 305 312 322 324 321 322 324 327
186 187 191 190 181 175 180 180 170 164 162 159 154 143 136 141 132 115 98 85 78 72 67 62 58 54 50 45 39 34 31 27 25 25 24 22 22 24 24 25 31 38 42 41 39 39 39 38 38 37 37 39 41 41 41 43 44 47 51 50 52 59 64 66 66 67 70 68 56 37 355 324 296 295 304 305 307 314 313 310 314 320 326 323 320 323 324 326
191 194 197 192 178 172 182 184 175 169 166 165 163 153 148 156 139 115 101 89 81 73 67 62 55 51 46 39 33 27 24 22 20 17 15 12 14 16 18 19 23 32 39 39 38 39 39 38 37 34 32 32 34 37 40 41 40 41 39 34 32 35 40 47 46 40 37 30 18 356 334 327 320 317 320 318 316 316 314 314 317 321 323 320 319 321 322 323
195 199 201 191 177 174 181 184 180 175 172 171 167 160 162 163 140 119 113 103 90 75 66 61 54 47 40 34 29 24 20 19 17 15 12 11 11 12 12 14 17 25 34 37 37 39 40 40 38 35 31 28 27 29 32 32 31 30 25 18 17 16 18 25 25 17 9 3 353 335 325 325 322 319 318 316 313 313 313 315 317 319 320 318 317 318 319 320
197 201 201 189 179 178 180 183 183 180 178 176 172 171 174 165 141 131 137 127 101 76 64 57 50 40 32 28 24 20 18 17 16 16 17 17 16 13 10 11 14 19 26 32 36 38 40 39 39 36 31 27 23 22 22 20 18 16 11 5 6 6 4 7 6 1 354 346 337 327 321 320 318 316 314 313 312 312 314 315 316 318 318 316 315 315 316 318
198 201 199 190 184 182 181 182 184 183 182 179 177 179 180 165 146 144 154 145 118 82 59 49 40 28 23 22 19 17 16 15 15 18 21 23 22 18 14 12 14 16 18 25 33 37 38 38 37 36 33 30 25 20 16 13 9 5 2 360 1 2 359 354 349 349 347 339 330 323 319 317 316 313 311 311 311 311 313 314 315 316 315 314 314 315 318 321
199 199 196 192 188 184 182 183 184 185 183 180 180 183 181 165 151 148 160 165 147 91 47 34 24 15 14 15 13 13 14 14 15 19 22 24 24 23 21 19 18 18 17 22 29 33 34 35 34 34 34 33 30 24 18 15 9 4 2 359 355 354 352 347 343 343 339 331 324 317 314 312 311 309 307 305 304 306 308 312 314 315 314 315 316 318 321 323
198 198 195 193 190 186 184 184 185 185 183 180 182 185 181 168 157 156 167 182 186 168 14 7 3 2 5 7 8 10 12 12 15 19 22 24 25 25 26 26 25 25 25 27 28 29 30 30 29 28 29 30 29 27 24 21 19 15 9 357 348 348 353 350 346 341 330 321 315 311 309 309 306 304 301 299 301 305 309 313 315 315 314 316 318 321 323 323
197 197 196 194 192 189 186 185 186 186 185 182 182 184 181 172 166 168 178 190 205 236 312 339 345 350 357 2 5 8 9 9 14 19 23 24 24 26 27 28 28 30 32 32 31 31 27 24 22 22 23 26 26 26 26 25 24 22 16 8 357 352 358 359 353 342 327 321 319 314 313 314 313 309 307 307 309 311 313 315 316 315 315 317 319 321 322 321
196 196 196 195 193 191 189 189 189 188 187 185 182 182 181 177 171 173 184 196 211 242 289 316 332 342 352 359 4 6 7 7 12 18 23 25 25 27 29 29 30 32 34 35 34 34 29 20 15 13 15 21 24 24 25 25 24 21 17 13 5 356 356 355 350 346 341 336 332 329 328 328 325 322 318 315 314 314 315 316 316 316 317 318 320 320 321 321
196 196 197 197 195 192 192 193 193 193 192 189 184 182 183 180 176 180 190 202 221 249 278 303 325 339 349 357 2 4 5 6 9 14 21 25 25 28 31 31 32 34 35 35 34 33 30 24 17 10 9 13 17 20 22 23 21 18 14 10 4 358 353 348 342 340 339 336 331 330 332 331 327 323 318 314 312 312 313 315 316 317 319 320 321 321 321 322
197 197 198 197 196 195 195 196 197 198 199 195 188 186 188 186 184 188 196 208 230 256 278 300 322 336 347 355 359 0 2 5 7 9 17 24 24 26 30 31 33 34 35 35 34 31 29 26 23 18 12 11 12 14 16 17 16 14 12 7 0 354 349 343 335 330 329 329 328 326 325 327 325 320 315 311 310 311 312 314 316 319 320 321 322 322 323 324
199 199 198 198 198 198 198 200 203 204 205 201 193 191 195 197 195 196 205 220 239 260 282 301 318 333 346 352 354 355 359 3 7 7 13 21 23 23 24 26 28 30 30 30 30 28 26 24 23 21 17 13 11 9 8 8 8 9 8 2 354 346 343 341 334 326 323 321 321 321 321 324 326 320 314 311 310 311 313 315 316 318 320 321 322 323 324 324
200 199 199 199 200 200 201 204 208 211 210 208 202 199 202 205 206 208 219 233 248 265 284 299 314 331 344 348 348 351 355 0 6 7 10 16 20 19 19 18 18 20 21 21 19 18 18 17 16 16 15 14 10 5 2 0 360 1 1 358 350 339 334 335 332 324 320 317 316 319 321 322 323 319 314 311 310 310 313 315 316 317 319 320 321 322 323 323
Height
5814 5813 5812 5811 5810 5809 5807 5805 5803 5801 5798 5796 5794 5791 5789 5788 5786 5785 5784 5783 5781 5779 5778 5776 5774 5772 5771 5769 5768 5767 5765 5764 5763 5763 5762 5762 5761 5761 5762 5762 5763 5764 5765 5766 5768 5770 5772 5774 5776 5778 5780 5782 5784 5786 5788 5790 5792 5794 5796 5799 5802 5804 5805 5807 5809 5810 5811 5813 5814 5816 5817 5819 5820 5821 5822 5821 5820 5819 5819 5819 5820 5820 5821 5821 5821 5821 5820 5820
5813 5813 5812 5811 5809 5808 5806 5804 5802 5800 5798 5796 5794 5792 5791 5789 5788 5786 5785 5784 5782 5780 5778 5777 5776 5774 5773 5771 5770 5769 5768 5767 5766 5765 5765 5764 5764 5764 5764 5765 5765 5766 5767 5768 5770 5771 5773 5774 5776 5778 5780 5782 5784 5786 5788 5790 5792 5794 5796 5799 5801 5802 5804 5806 5808 5810 5812 5813 5814 5815 5817 5818 5819 5819 5819 5818 5816 5816 5816 5816 5817 5818 5819 5819 5819 5818 5818 5818
5813 5812 5812 5810 5809 5807 5805 5803 5801 5800 5798 5797 5795 5794 5792 5790 5789 5788 5786 5785 5783 5781 5780 5779 5778 5776 5775 5774 5773 5771 5770 5769 5768 5768 5768 5767 5767 5767 5767 5767 5768 5768 5769 5770 5771 5772 5773 5775 5777 5778 5780 5782 5784 5786 5788 5790 5792 5794 5797 5800 5801 5802 5805 5807 5809 5810 5812 5813 5814 5815 5816 5816 5816 5815 5814 5813 5814 5815 5815 5815 5817 5818 5818 5818 5817 5816 5815 5816
5813 5812 5811 5810 5808 5806 5804 5803 5801 5800 5799 5798 5796 5795 5793 5792 5790 5789 5787 5786 5784 5783 5782 5781 5780 5779 5777 5776 5775 5774 5773 5772 5771 5770 5770 5770 5769 5769 5769 5769 5770 5770 5771 5771 5772 5773 5774 5776 5777 5779 5781 5783 5785 5786 5788 5790 5792 5794 5797 5799 5800 5802 5806 5808 5810 5811 5813 5814 5815 5814 5813 5813 5813 5813 5812 5814 5815 5815 5814 5814 5816 5817 5816 5815 5815 5814 5813 5815
5813 5812 5811 5810 5808 5806 5804 5803 5802 5801 5800 5799 5797 5796 5795 5793 5791 5790 5789 5787 5786 5785 5784 5783 5782 5780 5779 5778 5778 5777 5776 5774 5774 5773 5773 5772 5772 5772 5771 5771 5772 5772 5772 5773 5774 5775 5776 5777 5778 5780 5782 5784 5786 5788 5789 5791 5792 5794 5796 5798 5800 5804 5807 5809 5811 5812 5814 5814 5814 5812 5811 5812 5813 5814 5814 5815 5815 5815 5813 5813 5814 5814 5814 5813 5814 5815 5814 5816
5813 5812 5810 5809 5807 5806 5805 5804 5803 5802 5801 5799 5798 5797 5796 5794 5792 5791 5790 5789 5788 5787 5786 5785 5784 5782 5781 5781 5780 5780 5779 5777 5776 5776 5776 5775 5775 5774 5774 5774 5774 5774 5774 5775 5775 5776 5777 5778 5780 5781 5784 5786 5787 5789 5790 5791 5793 5795 5798 5800 5803 5806 5808 5810 5812 5813 5814 5814 5812 5811 5812 5814 5814 5814 5814 5815 5815 5815 5814 5813 5813 5813 5814 5814 5815 5816 5816 5816
5813 5811 5810 5809 5807 5807 5807 5806 5804 5803 5802 5800 5799 5798 5797 5795 5794 5792 5791 5791 5790 5789 5788 5787 5785 5784 5783 5783 5782 5782 5781 5780 5779 5779 5778 5778 5778 5777 5777 5777 5776 5776 5776 5777 5778 5778 5780 5781 5782 5783 5786 5788 5788 5789 5791 5793 5794 5797 5800 5802 5804 5807 5809 5811 5812 5813 5813 5812 5812 5812 5814 5814 5814 5814 5814 5815 5815 5815 5815 5815 5814 5814 5815 5815 5816 5817 5816 5816
5812 5811 5810 5809 5809 5808 5807 5806 5805 5804 5803 5802 5801 5799 5798 5796 5795 5794 5793 5792 5792 5790 5789 5788 5788 5787 5786 5785 5785 5785 5784 5783 5782 5781 5781 5781 5780 5780 5779 5779 5779 5779 5780 5780 5781 5781 5782 5783 5784 5785 5787 5789 5790 5791 5793 5795 5797 5799 5801 5803 5806 5808 5810 5811 5812 5813 5812 5812 5812 5813 5813 5814 5814 5814 5815 5815 5816 5815 5816 5816 5815 5815 5815 5816 5816 5816 5816 5817
5811 5811 5810 5810 5810 5809 5808 5807 5806 5805 5804 5803 5802 5800 5799 5798 5797 5796 5795 5794 5793 5792 5791 5791 5790 5789 5788 5787 5787 5787 5786 5785 5784 5784 5784 5783 5783 5782 5782 5782 5781 5782 5782 5783 5783 5784 5785 5786 5787 5788 5789 5791 5792 5794 5795 5797 5799 5801 5803 5805 5807 5809 5810 5812 5813 5813 5812 5812 5813 5813 5813 5814 5815 5815 5815 5816 5816 5816 5816 5817 5816 5816 5816 5815 5815 5815 5816 5817
5811 5811 5811 5811 5811 5810 5809 5808 5807 5806 5805 5804 5803 5802 5800 5799 5798 5798 5797 5796 5795 5794 5793 5793 5792 5791 5790 5789 5789 5790 5788 5788 5787 5787 5786 5786 5785 5785 5784 5784 5784 5784 5784 5785 5786 5787 5788 5789 5790 5790 5792 5793 5794 5796 5797 5798 5800 5802 5804 5805 5807 5809 5811 5812 5813 5813 5812 5813 5813 5813 5814 5815 5815 5816 5816 5816 5817 5817 5817 5818 5817 5817 5816 5816 5816 5815 5816 5816
5811 5812 5812 5812 5811 5810 5810 5809 5808 5808 5807 5805 5804 5803 5802 5801 5800 5799 5799 5798 5796 5796 5795 5794 5793 5792 5792 5791 5791 5791 5791 5790 5789 5789 5789 5788 5788 5787 5787 5786 5786 5786 5787 5787 5788 5789 5790 5791 5792 5793 5794 5795 5796 5797 5799 5800 5801 5802 5804 5806 5807 5809 5811 5812 5813 5813 5813 5813 5813 5813 5814 5815 5816 5817 5816 5816 5817 5817 5817 5817 5818 5817 5817 5816 5816 5816 5816 5816
5812 5813 5813 5812 5811 5811 5811 5810 5810 5809 5808 5806 5805 5805 5804 5803 5802 5801 5800 5799 5798 5797 5797 5796 5795 5794 5794 5793 5794 5793 5793 5792 5792 5791 5791 5790 5790 5789 5789 5789 5789 5789 5789 5790 5791 5791 5792 5793 5794 5795 5795 5796 5797 5798 5800 5801 5802 5803 5804 5806 5807 5808 5810 5811 5812 5813 5813 5813 5813 5813 5814 5815 5816 5816 5816 5816 5816 5816 5817 5817 5817 5817 5817 5816 5816 5816 5816 5817
5813 5814 5813 5812 5812 5812 5812 5811 5811 5810 5808 5807 5807 5806 5805 5804 5804 5803 5802 5801 5800 5799 5798 5798 5797 5796 5796 5796 5796 5795 5795 5794 5793 5793 5792 5792 5792 5792 5792 5792 5792 5792 5792 5792 5793 5793 5794 5795 5795 5796 5797 5798 5799 5799 5800 5802 5803 5804 5805 5806 5806 5807 5808 5809 5811 5812 5812 5813 5813 5812 5813 5815 5816 5816 5816 5816 5816 5817 5816 5817 5817 5817 5817 5817 5817 5817 5817 5817
5813 5814 5813 5813 5813 5813 5813 5812 5811 5810 5809 5808 5808 5807 5806 5806 5805 5805 5804 5803 5802 5801 5800 5800 5799 5799 5798 5798 5798 5797 5797 5796 5795 5794 5794 5794 5794 5793 5793 5794 5794 5794 5794 5794 5795 5795 5796 5796 5797 5798 5798 5799 5799 5800 5801 5802 5803 5804 5805 5805 5805 5805 5806 5808 5809 5811 5811 5811 5811 5812 5814 5815 5816 5815 5816 5816 5816 5817 5817 5816 5817 5817 5817 5817 5818 5818 5818 5818
5813 5814 5813 5813 5814 5814 5814 5813 5812 5811 5810 5809 5808 5807 5807 5807 5806 5806 5805 5804 5804 5803 5802 5801 5801 5801 5800 5800 5799 5799 5798 5798 5797 5796 5796 5795 5795 5795 5795 5795 5795 5795 5795 5796 5796 5797 5798 5798 5799 5799 5799 5799 5800 5801 5801 5802 5802 5803 5805 5805 5804 5803 5804 5806 5808 5809 5809 5809 5810 5811 5813 5815 5815 5815 5815 5816 5816 5817 5817 5816 5816 5817 5817 5818 5818 5818 5819 5819
5813 5814 5814 5814 5815 5815 5815 5814 5813 5811 5811 5810 5809 5809 5808 5808 5808 5807 5806 5806 5805 5805 5804 5803 5803 5802 5801 5801 5801 5800 5800 5799 5798 5798 5797 5797 5797 5796 5796 5796 5796 5796 5796 5797 5797 5798 5798 5799 5799 5800 5800 5800 5800 5801 5801 5801 5802 5802 5803 5803 5803 5802 5802 5804 5806 5807 5808 5808 5809 5810 5812 5814 5814 5815 5815 5816 5816 5816 5817 5816 5816 5817 5817 5817 5818 5819 5820 5820
5813 5814 5815 5815 5815 5815 5815 5815 5813 5812 5811 5811 5810 5810 5810 5809 5809 5808 5807 5807 5806 5806 5805 5805 5805 5804 5803 5803 5803 5802 5801 5801 5800 5799 5799 5799 5798 5798 5797 5797 5797 5797 5797 5797 5797 5798 5798 5799 5799 5799 5800 5800 5800 5800 5800 5800 5800 5800 5800 5801 5801 5800 5800 5802 5804 5805 5807 5807 5808 5810 5811 5813 5813 5814 5814 5815 5815 5816 5817 5817 5817 5817 5817 5817 5818 5819 5820 5820
5813 5814 5815 5816 5816 5816 5816 5815 5814 5813 5812 5812 5811 5811 5810 5810 5810 5809 5809 5808 5808 5808 5807 5807 5806 5805 5805 5805 5804 5803 5803 5802 5802 5801 5800 5800 5800 5799 5799 5798 5798 5798 5798 5798 5798 5798 5798 5798 5798 5798 5799 5798 5799 5799 5798 5798 5798 5797 5798 5798 5798 5797 5797 5800 5802 5803 5805 5807 5808 5809 5810 5812 5813 5813 5814 5814 5815 5815 5816 5817 5817 5818 5818 5817 5818 5819 5819 5820
5814 5815 5816 5816 5817 5817 5816 5816 5815 5814 5813 5812 5812 5812 5811 5811 5810 5810 5810 5810 5809 5809 5809 5808 5808 5807 5806 5806 5805 5804 5804 5803 5803 5802 5802 5801 5801 5800 5800 5800 5800 5799 5799 5799 5799 5799 5799 5799 5798 5798 5798 5797 5797 5797 5796 5796 5795 5795 5796 5796 5795 5794 5795 5797 5799 5801 5803 5805 5807 5808 5809 5811 5812 5813 5813 5813 5814 5815 5816 5817 5818 5818 5818 5818 5818 5819 5819 5819
5814 5815 5816 5817 5817 5817 5817 5816 5815 5814 5814 5813 5813 5813 5812 5812 5811 5811 5811 5810 5810 5810 5810 5809 5809 5808 5808 5807 5806 5805 5805 5804 5804 5803 5803 5802 5802 5801 5801 5800 5800 5800 5800 5800 5799 5799 5799 5799 5799 5798 5797 5796 5795 5795 5794 5793 5792 5792 5793 5792 5792 5793 5794 5795 5797 5799 5801 5804 5805 5807 5808 5810 5811 5812 5813 5813 5814 5815 5816 5816 5817 5818 5818 5817 5817 5818 5818 5818
5815 5816 5817 5818 5818 5818 5817 5817 5816 5815 5815 5814 5814 5814 5813 5813 5812 5812 5812 5811 5811 5812 5811 5811 5810 5809 5809 5808 5807 5806 5806 5805 5805 5804 5803 5803 5802 5802 5802 5801 5801 5801 5801 5800 5800 5800 5799 5799 5798 5797 5796 5795 5794 5793 5791 5791 5790 5790 5790 5789 5788 5790 5792 5793 5795 5797 5799 5802 5804 5805 5807 5809 5810 5811 5812 5813 5813 5814 5815 5816 5816 5817 5817 5817 5817 5817 5817 5818
5815 5816 5818 5818 5819 5818 5818 5817 5817 5816 5815 5815 5815 5814 5814 5813 5813 5813 5813 5813 5813 5812 5812 5811 5811 5810 5809 5809 5807 5807 5807 5806 5806 5805 5804 5804 5803 5803 5803 5803 5803 5802 5801 5800 5800 5800 5799 5799 5798 5797 5796 5794 5793 5791 5789 5788 5788 5788 5787 5786 5786 5786 5789 5791 5792 5795 5798 5800 5802 5803 5806 5808 5810 5811 5812 5813 5813 5814 5814 5815 5815 5816 5816 5817 5817 5817 5817 5817
5816 5817 5818 5819 5819 5819 5818 5818 5817 5817 5816 5816 5816 5815 5815 5814 5814 5814 5814 5814 5813 5813 5812 5812 5811 5811 5810 5809 5808 5808 5808 5807 5807 5806 5805 5805 5804 5804 5804 5804 5803 5803 5802 5801 5801 5801 5800 5799 5798 5797 5796 5794 5792 5789 5787 5786 5786 5786 5784 5783 5784 5783 5785 5788 5790 5794 5796 5798 5800 5802 5805 5807 5809 5810 5811 5812 5813 5814 5814 5814 5814 5815 5816 5816 5817 5817 5816 5816
5816 5817 5819 5820 5820 5819 5819 5818 5818 5818 5817 5817 5816 5816 5815 5815 5815 5815 5814 5814 5813 5813 5812 5812 5812 5811 5810 5810 5809 5809 5809 5808 5807 5807 5806 5806 5805 5805 5805 5804 5804 5804 5803 5802 5802 5801 5800 5799 5798 5797 5796 5793 5791 5788 5786 5784 5783 5783 5782 5781 5782 5781 5783 5785 5788 5791 5794 5796 5798 5800 5803 5806 5808 5810 5811 5812 5813 5813 5814 5814 5814 5815 5815 5816 5816 5816 5815 5814
5816 5818 5819 5820 5820 5819 5819 5819 5819 5818 5817 5817 5817 5817 5816 5816 5815 5815 5814 5814 5814 5813 5813 5813 5812 5812 5811 5811 5810 5810 5809 5809 5808 5808 5807 5807 5806 5806 5806 5805 5805 5804 5803 5802 5802 5800 5799 5798 5798 5797 5795 5792 5790 5787 5785 5784 5782 5781 5781 5780 5781 5781 5782 5783 5786 5790 5793 5796 5798 5799 5802 5805 5807 5809 5810 5811 5812 5813 5814 5814 5814 5815 5815 5815 5815 5815 5815 5814
5817 5818 5819 5819 5820 5820 5819 5820 5819 5819 5818 5818 5818 5817 5817 5816 5816 5816 5815 5815 5815 5815 5815 5814 5814 5813 5812 5812 5811 5810 5810 5809 5809 5808 5808 5808 5807 5806 5806 5806 5805 5804 5803 5802 5801 5800 5799 5798 5797 5795 5793 5791 5790 5788 5785 5783 5782 5781 5781 5780 5781 5782 5783 5784 5786 5789 5793 5795 5797 5799 5802 5804 5806 5808 5809 5810 5811 5812 5813 5813 5813 5814 5814 5814 5814 5813 5813 5813
5817 5818 5819 5819 5820 5820 5820 5820 5820 5819 5819 5819 5818 5818 5817 5817 5817 5817 5816 5816 5817 5816 5816 5815 5815 5814 5813 5813 5812 5811 5810 5809 5809 5809 5809 5808 5807 5806 5806 5806 5805 5804 5803 5802 5801 5800 5799 5798 5796 5794 5793 5792 5791 5788 5785 5783 5782 5782 5782 5781 5781 5782 5783 5784 5786 5789 5793 5795 5797 5800 5802 5804 5805 5807 5808 5809 5811 5812 5812 5812 5812 5813 5813 5813 5813 5812 5812 5812
5817 5818 5819 5819 5819 5819 5820 5820 5820 5820 5819 5819 5819 5819 5818 5818 5818 5818 5818 5817 5817 5817 5817 5816 5815 5814 5814 5813 5812 5812 5811 5810 5810 5809 5809 5808 5807 5807 5806 5806 5805 5804 5803 5802 5802 5801 5800 5798 5797 5795 5794 5793 5792 5789 5786 5785 5784 5784 5783 5783 5783 5783 5784 5785 5787 5790 5793 5796 5798 5800 5802 5804 5805 5806 5807 5809 5810 5810 5811 5811 5812 5812 5812 5812 5812 5812 5811 5810
5817 5818 5818 5819 5819 5819 5820 5820 5820 5820 5820 5820 5820 5820 5820 5819 5819 5819 5818 5818 5818 5818 5817 5816 5816 5815 5814 5813 5813 5812 5811 5811 5810 5809 5808 5808 5808 5807 5806 5806 5805 5804 5803 5802 5802 5801 5800 5799 5798 5796 5795 5794 5793 5791 5788 5787 5786 5785 5785 5785 5786 5786 5786 5788 5790 5792 5794 5796 5798 5800 5802 5804 5805 5806 5807 5808 5809 5809 5809 5810 5810 5811 5811 5811 5811 5810 5810 5809
5817 5818 5818 5819 5819 5819 5820 5820 5821 5821 5821 5821 5820 5820 5820 5820 5820 5819 5819 5819 5819 5819 5818 5817 5817 5816 5815 5814 5814 5813 5812 5811 5810 5810 5809 5809 5808 5807 5807 5806 5805 5804 5804 5803 5802 5801 5800 5800 5799 5797 5796 5796 5794 5792 5791 5789 5788 5787 5787 5788 5788 5789 5790 5791 5792 5794 5796 5798 5799 5801 5802 5804 5805 5806 5807 5807 5808 5808 5808 5809 5809 5809 5809 5809 5809 5808 5808 5807
5817 5817 5818 5818 5819 5819 5820 5820 5821 5821 5821 5821 5821 5821 5821 5821 5821 5820 5820 5820 5820 5819 5819 5818 5817 5817 5816 5815 5815 5814 5813 5812 5812 5811 5810 5809 5809 5808 5807 5806 5806 5805 5804 5803 5802 5801 5801 5801 5800 5799 5798 5797 5795 5794 5793 5792 5790 5790 5791 5791 5791 5792 5793 5794 5795 5797 5798 5799 5799 5801 5802 5804 5804 5805 5806 5807 5807 5808 5808 5808 5808 5808 5808 5808 5807 5807 5806 5805
5816 5817 5818 5818 5819 5819 5820 5821 5821 5822 5822 5821 5821 5821 5821 5822 5821 5821 5821 5821 5820 5820 5819 5819 5818 5817 5817 5816 5815 5815 5814 5813 5812 5812 5811 5810 5809 5809 5808 5807 5806 5805 5804 5804 5803 5802 5802 5801 5800 5800 5799 5798 5797 5796 5795 5794 5793 5793 5794 5794 5794 5795 5796 5797 5797 5798 5799 5799 5800 5801 5802 5803 5804 5805 5805 5806 5806 5807 5807 5807 5807 5807 5807 5806 5806 5805 5804 5803
5816 5817 5818 5818 5819 5819 5820 5821 5821 5822 5822 5822 5822 5822 5822 5822 5822 5822 5822 5822 5821 5821 5820 5819 5819 5818 5817 5817 5816 5815 5814 5814 5813 5812 5812 5811 5810 5810 5808 5807 5807 5806 5805 5804 5803 5803 5802 5801 5801 5801 5800 5799 5798 5797 5797 5797 5795 5795 5796 5797 5797 5797 5797 5798 5798 5799 5799 5799 5800 5801 5802 5803 5803 5804 5804 5805 5805 5805 5805 5805 5806 5805 5805 5805 5804 5803 5803 5802
5816 5817 5818 5818 5819 5819 5820 5821 5822 5822 5822 5822 5822 5822 5823 5823 5823 5823 5823 5822 5822 5821 5820 5820 5819 5819 5818 5818 5817 5816 5816 5815 5814 5813 5813 5812 5811 5810 5809 5808 5807 5806 5805 5805 5804 5803 5802 5802 5801 5801 5800 5800 5799 5798 5799 5798 5797 5797 5797 5797 5798 5798 5798 5799 5799 5800 5800 5800 5801 5801 5802 5802 5803 5803 5803 5803 5804 5804 5804 5804 5804 5804 5804 5803 5803 5802 5801 5800
5815 5817 5817 5818 5818 5819 5820 5821 5822 5822 5822 5822 5822 5823 5823 5824 5824 5824 5823 5823 5822 5822 5821 5821 5820 5819 5819 5818 5818 5817 5817 5816 5815 5815 5814 5813 5812 5811 5810 5809 5808 5807 5806 5805 5805 5804 5803 5802 5802 5801 5801 5801 5800 5800 5800 5799 5798 5799 5798 5798 5798 5799 5799 5799 5799 5800 5800 5801 5801 5801 5801 5802 5802 5802 5802 5802 5802 5803 5803 5803 5803 5802 5802 5802 5802 5801 5800 5799
5815 5816 5817 5818 5818 5819 5820 5821 5822 5822 5822 5822 5823 5823 5824 5824 5824 5824 5824 5823 5823 5822 5822 5821 5821 5821 5820 5819 5819 5818 5818 5817 5816 5815 5814 5813 5812 5811 5811 5810 5809 5808 5807 5806 5806 5805 5804 5803 5803 5802 5802 5802 5801 5801 5801 5800 5800 5800 5800 5799 5799 5799 5799 5799 5800 5800 5800 5801 5801 5801 5801 5801 5801 5801 5801 5801 5801 5801 5801 5801 5801 5801 5801 5801 5801 5800 5799 5798
5815 5816 5817 5817 5818 5819 5820 5821 5821 5822 5822 5823 5823 5824 5824 5824 5825 5825 5824 5824 5823 5823 5823 5822 5822 5822 5821 5821 5820 5819 5819 5818 5817 5816 5815 5814 5813 5812 5812 5811 5810 5809 5808 5807 5807 5806 5805 5804 5803 5803 5803 5802 5802 5801 5801 5800 5800 5800 5800 5800 5800 5800 5800 5800 5800 5800 5801 5801 5801 5801 5801 5801 5801 5801 5801 5801 5801 5800 5800 5800 5800 5800 5800 5800 5799 5798 5797 5796
5815 5815 5816 5817 5817 5818 5819 5820 5821 5822 5822 5823 5823 5824 5824 5825 5825 5825 5825 5824 5824 5824 5824 5823 5823 5823 5822 5822 5821 5820 5820 5819 5818 5817 5816 5815 5814 5813 5812 5812 5811 5810 5809 5808 5807 5807 5806 5805 5805 5804 5803 5803 5802 5802 5801 5801 5801 5800 5801 5801 5801 5801 5801 5801 5801 5801 5801 5801 5801 5801 5801 5801 5801 5801 5801 5800 5800 5800 5800 5800 5799 5799 5798 5798 5797 5796 5795 5794
5814 5815 5816 5816 5817 5818 5819 5820 5821 5822 5822 5823 5823 5824 5824 5825 5825 5825 5825 5825 5824 5824 5824 5824 5824 5823 5823 5822 5822 5821 5820 5819 5819 5818 5817 5816 5815 5814 5813 5812 5812 5811 5810 5809 5808 5808 5807 5806 5805 5805 5804 5804 5803 5803 5802 5802 5801 5801 5801 5801 5801 5801 5801 5801 5801 5801 5801 5801 5801 5801 5801 5801 5801 5801 5800 5800 5800 5799 5799 5799 5798 5798 5797 5796 5795 5794 5793 5792
5814 5814 5815 5816 5817 5818 5819 5820 5821 5822 5822 5823 5823 5824 5824 5825 5825 5825 5825 5825 5825 5825 5825 5824 5824 5823 5823 5822 5822 5821 5821 5820 5819 5818 5817 5816 5816 5815 5814 5813 5812 5812 5811 5810 5809 5809 5808 5807 5806 5805 5805 5804 5804 5803 5803 5802 5802 5801 5801 5801 5801 5801 5801 5801 5801 5801 5801 5801 5801 5801 5801 5801 5800 5800 5799 5799 5798 5798 5798 5797 5797 5796 5796 5795 5794 5793 5792 5791
5813 5814 5815 5815 5817 5818 5819 5820 5821 5821 5822 5823 5823 5824 5825 5825 5825 5825 5825 5825 5825 5825 5825 5825 5824 5824 5823 5823 5822 5822 5821 5820 5819 5818 5817 5817 5816 5815 5814 5813 5813 5812 5811 5811 5810 5810 5809 5808 5807 5806 5805 5804 5804 5803 5803 5802 5802 5802 5802 5801 5801 5801 5801 5801 5801 5801 5801 5801 5800 5800 5800 5800 5799 5799 5798 5797 5797 5797 5796 5796 5795 5795 5794 5794 5793 5792 5791 5789
5812 5813 5814 5815 5816 5817 5818 5819 5820 5821 5822 5823 5823 5824 5825 5825 5825 5825 5826 5826 5826 5825 5825 5825 5824 5824 5824 5823 5823 5822 5821 5821 5820 5819 5818 5817 5816 5815 5814 5814 5813 5812 5812 5811 5811 5810 5810 5809 5808 5807 5806 5805 5804 5803 5803 5802 5802 5802 5802 5801 5801 5801 5801 5801 5801 5801 5800 5800 5800 5799 5799 5799 5798 5797 5797 5796 5796 5795 5795 5794 5794 5794 5793 5792 5791 5790 5789 5788
5811 5812 5814 5815 5816 5817 5818 5819 5820 5821 5822 5822 5823 5824 5824 5825 5825 5825 5826 5826 5826 5825 5825 5825 5825 5825 5824 5824 5824 5823 5822 5821 5820 5819 5818 5817 5816 5815 5814 5814 5813 5812 5812 5812 5811 5811 5810 5809 5808 5807 5806 5805 5804 5803 5803 5802 5802 5802 5802 5802 5801 5801 5801 5801 5800 5800 5800 5799 5799 5799 5798 5798 5797 5796 5796 5795 5794 5794 5793 5793 5792 5792 5791 5791 5790 5789 5788 5787
5810 5812 5813 5815 5815 5816 5817 5818 5820 5820 5821 5822 5823 5824 5824 5824 5824 5825 5825 5826 5826 5825 5825 5825 5825 5825 5825 5824 5824 5823 5822 5821 5820 5819 5818 5817 5816 5815 5814 5813 5813 5812 5812 5811 5811 5811 5810 5809 5809 5808 5806 5805 5804 5804 5803 5803 5803 5802 5802 5802 5801 5801 5801 5800 5800 5800 5799 5799 5798 5798 5797 5797 5796 5795 5795 5794 5793 5793 5792 5792 5791 5790 5790 5789 5788 5787 5786 5784
5809 5811 5812 5814 5815 5816 5817 5818 5819 5820 5821 5822 5822 5823 5824 5824 5824 5825 5825 5825 5825 5825 5825 5825 5825 5825 5825 5824 5824 5823 5822 5821 5820 5819 5818 5817 5816 5815 5814 5813 5813 5812 5811 5811 5811 5810 5810 5810 5809 5808 5807 5806 5806 5805 5804 5804 5803 5803 5802 5802 5801 5801 5801 5800 5800 5799 5799 5798 5798 5797 5796 5796 5795 5795 5794 5793 5792 5792 5791 5790 5789 5789 5788 5787 5786 5785 5783 5782
5808 5810 5812 5813 5814 5815 5816 5817 5818 5819 5820 5821 5822 5823 5823 5823 5824 5825 5825 5825 5825 5825 5825 5825 5825 5825 5825 5824 5824 5823 5822 5821 5820 5819 5818 5817 5816 5815 5814 5813 5812 5812 5811 5811 5810 5810 5810 5809 5809 5808 5808 5807 5806 5806 5805 5804 5804 5803 5802 5802 5802 5801 5801 5800 5800 5799 5799 5798 5797 5796 5796 5795 5794 5794 5793 5792 5791 5790 5789 5788 5788 5787 5785 5784 5783 5782 5781 5779
5807 5809 5811 5812 5813 5815 5816 5817 5818 5819 5820 5820 5821 5822 5822 5823 5824 5824 5825 5825 5825 5825 5825 5825 5825 5825 5825 5824 5824 5823 5822 5821 5820 5819 5818 5817 5816 5815 5814 5813 5812 5812 5811 5811 5811 5810 5810 5809 5809 5809 5808 5807 5806 5806 5805 5804 5804 5803 5802 5802 5802 5801 5801 5800 5800 5799 5798 5798 5797 5796 5795 5794 5793 5793 5792 5791 5790 5789 5788 5787 5786 5785 5783 5782 5781 5780 5778 5777
5806 5808 5810 5811 5813 5814 5815 5816 5817 5818 5819 5820 5821 5821 5822 5822 5823 5824 5824 5825 5825 5825 5825 5825 5825 5825 5825 5824 5823 5823 5822 5821 5820 5819 5819 5818 5817 5816 5814 5813 5812 5812 5811 5811 5811 5811 5810 5810 5809 5809 5808 5807 5806 5805 5805 5804 5803 5803 5802 5801 5801 5801 5800 5799 5799 5798 5798 5797 5796 5795 5794 5793 5792 5791 5790 5789 5788 5787 5786 5785 5784 5783 5781 5780 5779 5778 5776 5775
5805 5807 5809 5810 5812 5813 5814 5816 5817 5818 5819 5819 5820 5821 5821 5822 5823 5823 5824 5824 5825 5825 5825 5825 5825 5825 5824 5824 5823 5822 5822 5821 5820 5819 5819 5818 5817 5816 5815 5814 5813 5812 5811 5811 5811 5810 5810 5810 5809 5809 5808 5807 5806 5805 5804 5803 5803 5802 5801 5801 5800 5800 5799 5798 5798 5797 5796 5796 5795 5794 5793 5792 5791 5790 5789 5788 5787 5786 5784 5783 5782 5781 5780 5778 5777 5776 5774 5773
5804 5806 5808 5809 5811 5812 5814 5815 5816 5817 5818 5819 5819 5820 5821 5822 5822 5823 5823 5824 5824 5824 5824 5824 5824 5824 5824 5823 5823 5822 5821 5821 5820 5819 5819 5818 5817 5816 5815 5814 5813 5813 5812 5811 5810 5810 5810 5809 5809 5808 5807 5806 5805 5804 5803 5803 5802 5801 5801 5800 5800 5799 5798 5798 5797 5796 5795 5795 5794 5793 5792 5791 5790 5789 5788 5787 5786 5784 5783 5782 5780 5779 5778 5776 5775 5773 5772 5770
5803 5805 5807 5808 5810 5811 5813 5814 5816 5817 5818 5818 5819 5820 5821 5821 5822 5823 5823 5823 5824 5824 5824 5824 5824 5824 5824 5823 5823 5822 5821 5821 5820 5819 5818 5818 5817 5816 5815 5815 5814 5813 5812 5811 5810 5810 5809 5809 5808 5807 5807 5806 5805 5804 5803 5802 5801 5800 5800 5799 5799 5798 5798 5797 5796 5795 5794 5793 5792 5792 5791 5790 5789 5788 5787 5785 5784 5783 5781 5780 5778 5777 5776 5774 5772 5771 5769 5767
5802 5804 5805 5807 5809 5810 5812 5814 5815 5816 5817 5818 5819 5819 5820 5821 5821 5822 5822 5823 5823 5823 5823 5823 5823 5823 5823 5823 5822 5822 5821 5820 5820 5819 5818 5817 5817 5816 5815 5814 5814 5813 5812 5811 5810 5810 5809 5808 5807 5807 5806 5805 5804 5803 5802 5802 5801 5800 5799 5798 5798 5797 5797 5796 5795 5794 5793 5792 5791 5790 5789 5788 5787 5786 5785 5784 5782 5781 5779 5778 5776 5775 5773 5772 5770 5768 5766 5764